Notices

What's New in latest Release from April 7th, 2021:

- Updated Glossary, including Speed of Maximum Gust, and Total Hourly Precipitation

- Updated national and regional climate services offices contacts and prices information

- Addition of station inventory lists for 1981-2010, 1971-2000, and 1961-1990 Normals.

If you haven't already, please take our survey and provide feedback about our website: https://eccc.sondage-survey.ca/f/LanguageSelection.aspx?s=442ca660-fcf1-47c0-95a9-59707d6fd709

Hourly Data Report for April 13, 2012

MIRAMICHI RCS
NEW BRUNSWICK

47°00'34.000" N
65°27'54.000" W
33.00 m
8100989
71744
ACQ

Download Data

Hourly Data (April 2012)
Hourly Data Report for April 13, 2012
TIME
LST
Temp Definition
°C
Dew Point Definition
°C
Rel Hum Definition
%
Precip. Amount Definition
mm

Wind Dir Definition
10's deg

Wind Spd Definition
km/h
Visibility Definition
km
Stn Press Definition
kPa
Hmdx Definition


Wind Chill Definition


Weather Definition


00:00 1.3 -0.7 87   24 2   101.34     LegendNANA
01:00 1.3 -0.8 86   28 6   101.31     LegendNANA
02:00 1.0 -0.8 88   26 4   101.28     LegendNANA
03:00 0.6 -1.0 89   26 6   101.22     LegendNANA
04:00 0.3 -1.1 90   26 6   101.23     LegendNANA
05:00 0.8 -0.6 90   25 7   101.21     LegendNANA
06:00 0.2 -1.2 90   28 4   101.24     LegendNANA
07:00 1.3 -0.7 87   27 6   101.27     LegendNANA
08:00 3.4 -0.4 76   29 6   101.27     LegendNANA
09:00 5.7 -2.9 54   36 6   101.27     LegendNANA
10:00 7.8 -3.7 44   3 6   101.21     LegendNANA
11:00 9.0 -4.9 37   35 9   101.13     LegendNANA
12:00 9.7 -5.8 33   5 11   101.06     LegendNANA
13:00 10.6 -6.7 29   33 6   100.99     LegendNANA
14:00 11.3 -7.6 26   31 9   100.91     LegendNANA
15:00 12.4 -8.0 23   33 13   100.82     LegendNANA
16:00 12.9 -10.3 19   31 13   100.77     LegendNANA
17:00 13.0 -10.8 18   31 11   100.72     LegendNANA
18:00 11.5 -5.4 30   4 9   100.73     LegendNANA
19:00 7.4 -3.9 44   11 11   100.77     LegendNANA
20:00 4.9 -4.1 52   8 7   100.83     LegendNANA
21:00 2.2 -3.9 64     0   100.83     LegendNANA
22:00 1.1 -3.8 70     0   100.82     LegendNANA
23:00 -0.6 -4.0 78     0   100.78     LegendNANA

Notes on Data Quality.

Legend

  • E = Estimated
  • M = Missing
  • NA = Not Available*
  • [empty] = Indicates an unobserved value
Date modified: